Rolla, ND

11:51 AM CDT on August 18, 2017 (GMT -0500)
Rolla

Weather History for K06D - April, 2013

Change the Weather History Date:

Thursday, April 4, 2013

  Actual Average (KRUG) Record (KRUG)
Temperature  
Mean Temperature 19 °F -  
Max Temperature 30 °F 46 °F 70 °F (1988)
Min Temperature 8 °F 24 °F 4 °F (1982)
Degree Days  
Heating Degree Days 46    
Moisture  
Dew Point 18 °F    
Average Humidity 83    
Maximum Humidity 100    
Minimum Humidity 69    
Precipitation  
Precipitation 0.00 in - - ()
Sea Level Pressure  
Sea Level Pressure 30.20 in    
Wind  
Wind Speed 15 mph (North)    
Max Wind Speed 24 mph    
Max Gust Speed 33 mph    
Visibility 10 miles    
Events      
Averages and records for this station are not official NWS values.
T = Trace of Precipitation, MM = Missing Value Source: NWS Daily Summary

Daily Weather History Graph

Daily Weather History Graph

Search for Another Location

Airport or City:

Trip Planner

Search our weather history database for the weather conditions in past years. The results will help you decide how hot, cold, wet, or windy it might be!

Date:

Astronomy

Apr. 04, 2013 Rise Set
Actual Time 7:09 AM CDT 8:14 PM CDT
Civil Twilight 6:37 AM CDT 8:46 PM CDT
Nautical Twilight 5:58 AM CDT 9:25 PM CDT
Astronomical Twilight 5:16 AM CDT 10:07 PM CDT
Moon 4:05 AM CDT (4/4) 2:07 PM CDT (4/4)
Length of Visible Light 14h 09m
Length of Day
13h 05m
Waning Crescent, 33% of the Moon is Illuminated
Apr 4
Waning Crescent
Apr 10
New
Apr 18
First Quarter
Apr 25
Full
May 2
Last Quarter

Hourly Weather History & Observations

Time (CDT) Temp. Windchill Dew Point Humidity Pressure Visibility Wind Dir Wind Speed Gust Speed Precip Events Conditions
12:15 AM 30.2 °F 16.8 °F 24.8 °F 80% 30.06 in 10.0 mi NW 23.0 mph 27.6 mph N/A   Clear
12:35 AM 28.4 °F 15.1 °F 24.8 °F 86% 30.06 in 10.0 mi NW 20.7 mph 25.3 mph N/A   Clear
12:55 AM 28.4 °F 14.7 °F 23.0 °F 80% 30.06 in 10.0 mi NW 21.9 mph 26.5 mph N/A   Clear
1:15 AM 28.4 °F 14.7 °F 23.0 °F 80% 30.07 in 10.0 mi NW 21.9 mph - N/A   Clear
1:35 AM 28.4 °F 14.1 °F 23.0 °F 80% 30.07 in 10.0 mi NW 24.2 mph - N/A   Clear
1:55 AM 26.6 °F 11.7 °F 23.0 °F 86% 30.07 in 10.0 mi NNW 24.2 mph - N/A   Clear
2:15 AM 26.6 °F 12.0 °F 23.0 °F 86% 30.07 in 10.0 mi NNW 23.0 mph 29.9 mph N/A   Clear
2:35 AM 26.6 °F 12.4 °F 23.0 °F 86% 30.07 in 10.0 mi NNW 21.9 mph 33.4 mph N/A   Clear
2:55 AM 26.6 °F 13.1 °F 23.0 °F 86% 30.08 in 10.0 mi NNW 19.6 mph - N/A   Clear
3:15 AM 26.6 °F 12.7 °F 21.2 °F 80% 30.09 in 10.0 mi NNW 20.7 mph - N/A   Clear
3:35 AM 24.8 °F 11.1 °F 21.2 °F 86% 30.09 in 10.0 mi NNW 18.4 mph - N/A   Clear
3:55 AM 24.8 °F 10.7 °F 21.2 °F 86% 30.10 in 10.0 mi NNW 19.6 mph - N/A   Clear
4:15 AM 24.8 °F 10.3 °F 21.2 °F 86% 30.10 in 10.0 mi NW 20.7 mph - N/A   Clear
4:35 AM 24.8 °F 11.5 °F 21.2 °F 86% 30.11 in 10.0 mi NW 17.3 mph - N/A   Clear
4:55 AM 24.8 °F 11.9 °F 19.4 °F 80% 30.11 in 10.0 mi NNW 16.1 mph - N/A   Clear
5:15 AM 24.8 °F 11.5 °F 19.4 °F 80% 30.11 in 10.0 mi NNW 17.3 mph - N/A   Clear
5:35 AM 23.0 °F 9.6 °F 19.4 °F 86% 30.13 in 10.0 mi NNW 16.1 mph - N/A   Clear
5:55 AM 24.8 °F 11.9 °F 19.4 °F 80% 30.14 in 10.0 mi NW 16.1 mph - N/A   Partly Cloudy
6:15 AM 23.0 °F 9.2 °F 19.4 °F 86% 30.15 in 10.0 mi NW 17.3 mph - N/A   Partly Cloudy
6:35 AM 24.8 °F 12.4 °F 19.4 °F 80% 30.16 in 10.0 mi NW 15.0 mph - N/A   Scattered Clouds
6:55 AM 24.8 °F 11.5 °F 19.4 °F 80% 30.16 in 10.0 mi NW 17.3 mph 23.0 mph N/A   Scattered Clouds
7:15 AM 24.8 °F 12.9 °F 19.4 °F 80% 30.16 in 10.0 mi NNW 13.8 mph - N/A   Partly Cloudy
7:35 AM 23.0 °F 10.1 °F 19.4 °F 86% 30.17 in 10.0 mi NNW 15.0 mph - N/A   Clear
7:55 AM 23.0 °F 9.6 °F 19.4 °F 86% 30.18 in 10.0 mi NNW 16.1 mph - N/A   Clear
8:15 AM 23.0 °F 9.6 °F 19.4 °F 86% 30.19 in 10.0 mi NNW 16.1 mph - N/A   Clear
8:35 AM 23.0 °F 9.6 °F 19.4 °F 86% 30.20 in 10.0 mi NNW 16.1 mph - N/A   Clear
8:55 AM 23.0 °F 10.6 °F 19.4 °F 86% 30.21 in 10.0 mi NNW 13.8 mph - N/A   Clear
9:15 AM 23.0 °F 9.6 °F 19.4 °F 86% 30.21 in 10.0 mi NNW 16.1 mph - N/A   Clear
9:35 AM 23.0 °F 10.1 °F 21.2 °F 93% 30.22 in 10.0 mi NNW 15.0 mph - N/A   Mostly Cloudy
9:55 AM 23.0 °F 11.7 °F 21.2 °F 93% 30.22 in 10.0 mi NNW 11.5 mph - N/A   Overcast
10:15 AM 23.0 °F 12.4 °F 21.2 °F 93% 30.23 in 10.0 mi North 10.4 mph - N/A   Overcast
10:35 AM 23.0 °F 11.7 °F 21.2 °F 93% 30.24 in 10.0 mi North 11.5 mph - N/A   Overcast
10:55 AM 24.8 °F 14.6 °F 21.2 °F 86% 30.24 in 10.0 mi North 10.4 mph - N/A   Overcast
11:35 AM 24.8 °F 13.4 °F 19.4 °F 80% 30.25 in 10.0 mi NNE 12.7 mph - N/A   Overcast
11:55 AM 24.8 °F 14.0 °F 19.4 °F 80% 30.26 in 10.0 mi NE 11.5 mph - N/A   Overcast
12:15 PM 24.8 °F 14.6 °F 19.4 °F 80% 30.26 in 10.0 mi NNE 10.4 mph - N/A   Mostly Cloudy
12:35 PM 24.8 °F 14.6 °F 19.4 °F 80% 30.27 in 10.0 mi NNE 10.4 mph - N/A   Mostly Cloudy
12:55 PM 24.8 °F 17.9 °F 19.4 °F 80% 30.27 in 10.0 mi NNE 5.8 mph - N/A   Overcast
1:15 PM 24.8 °F 17.9 °F 19.4 °F 80% 30.27 in 10.0 mi NNE 5.8 mph - N/A   Mostly Cloudy
1:35 PM 24.8 °F 16.1 °F 19.4 °F 80% 30.27 in 10.0 mi NNE 8.1 mph - N/A   Overcast
1:55 PM 24.8 °F 16.1 °F 19.4 °F 80% 30.27 in 10.0 mi NNE 8.1 mph - N/A   Mostly Cloudy
2:15 PM 24.8 °F 14.6 °F 19.4 °F 80% 30.26 in 10.0 mi North 10.4 mph - N/A   Scattered Clouds
2:35 PM 24.8 °F 16.1 °F 17.6 °F 74% 30.26 in 10.0 mi North 8.1 mph - N/A   Partly Cloudy
2:55 PM 24.8 °F 15.3 °F 17.6 °F 74% 30.25 in 10.0 mi North 9.2 mph - N/A   Clear
3:15 PM 24.8 °F 16.1 °F 19.4 °F 80% 30.24 in 10.0 mi NNE 8.1 mph - N/A   Clear
3:35 PM 24.8 °F 16.1 °F 17.6 °F 74% 30.25 in 10.0 mi North 8.1 mph - N/A   Clear
3:55 PM 24.8 °F 14.6 °F 17.6 °F 74% 30.25 in 10.0 mi North 10.4 mph - N/A   Clear
4:15 PM 24.8 °F 15.3 °F 15.8 °F 69% 30.25 in 10.0 mi NNE 9.2 mph - N/A   Clear
4:35 PM 24.8 °F 15.3 °F 15.8 °F 69% 30.25 in 10.0 mi North 9.2 mph - N/A   Clear
4:55 PM 24.8 °F 15.3 °F 15.8 °F 69% 30.25 in 10.0 mi NNE 9.2 mph - N/A   Clear
5:15 PM 24.8 °F 15.3 °F 15.8 °F 69% 30.25 in 10.0 mi NNE 9.2 mph - N/A   Clear
5:35 PM 24.8 °F 15.3 °F 15.8 °F 69% 30.25 in 10.0 mi NNE 9.2 mph - N/A   Clear
5:55 PM 24.8 °F 15.3 °F 15.8 °F 69% 30.24 in 10.0 mi NE 9.2 mph - N/A   Clear
6:15 PM 24.8 °F 16.1 °F 15.8 °F 69% 30.25 in 10.0 mi NNE 8.1 mph - N/A   Clear
6:35 PM 24.8 °F 16.9 °F 15.8 °F 69% 30.25 in 10.0 mi NNE 6.9 mph - N/A   Clear
6:55 PM 24.8 °F 17.9 °F 17.6 °F 74% 30.25 in 10.0 mi NNE 5.8 mph - N/A   Clear
7:15 PM 23.0 °F 17.0 °F 17.6 °F 80% 30.25 in 10.0 mi NE 4.6 mph - N/A   Clear
7:35 PM 23.0 °F 15.8 °F 17.6 °F 80% 30.24 in 10.0 mi NNE 5.8 mph - N/A   Clear
7:55 PM 21.2 °F 13.6 °F 17.6 °F 86% 30.24 in 10.0 mi NE 5.8 mph - N/A   Clear
8:15 PM 19.4 °F - 15.8 °F 86% 30.24 in 10.0 mi Calm Calm - N/A   Clear
8:35 PM 17.6 °F - 15.8 °F 93% 30.24 in 10.0 mi Calm Calm - N/A   Clear
8:55 PM 17.6 °F - 14.0 °F 86% 30.24 in 10.0 mi Calm Calm - N/A   Clear
9:15 PM 17.6 °F - 15.8 °F 93% 30.24 in 10.0 mi Calm Calm - N/A   Clear
9:35 PM 14.0 °F - 12.2 °F 93% 30.24 in 10.0 mi Calm Calm - N/A   Clear
9:55 PM 14.0 °F - 12.2 °F 93% 30.23 in 10.0 mi Calm Calm - N/A   Clear
10:15 PM 12.2 °F - 10.4 °F 92% 30.24 in 10.0 mi Calm Calm - N/A   Clear
10:35 PM 10.4 °F - 6.8 °F 85% 30.23 in 10.0 mi Calm Calm - N/A   Clear
10:55 PM 10.4 °F - 8.6 °F 92% 30.23 in 10.0 mi Calm Calm - N/A   Clear
11:15 PM 8.6 °F 2.0 °F 8.6 °F 100% 30.22 in 10.0 mi SW 3.5 mph - N/A   Clear
11:35 PM 8.6 °F 0.1 °F 6.8 °F 92% 30.23 in 10.0 mi SW 4.6 mph - N/A   Clear
11:55 PM 8.6 °F 0.1 °F 6.8 °F 92% 30.22 in 10.0 mi SSW 4.6 mph - N/A   Clear